Lapse_Rate
7.1 7.0 7.0 7.0 7.0 7.0 6.7 6.7 6.6 6.4 6.3 6.3 6.4 6.3 6.1 5.9 5.7 5.5 5.5 5.4 5.1 5.0
7.1 7.1 7.1 7.1 7.0 6.9 6.9 6.8 6.7 6.5 6.4 6.2 6.2 6.4 6.2 6.0 5.8 5.4 5.2 5.0 4.9 4.8
7.0 6.9 6.9 7.0 7.1 7.0 6.9 6.7 6.5 6.4 6.3 6.1 6.1 5.9 6.2 6.0 5.8 5.3 5.0 4.9 4.8 4.7
7.0 7.0 6.9 7.0 7.0 7.0 7.0 6.9 6.6 6.4 6.2 6.0 5.8 5.2 5.6 5.4 5.4 4.9 5.0 4.9 5.0 5.0
7.1 6.9 7.0 7.1 6.9 6.6 6.9 6.8 6.6 6.4 6.1 5.5 4.7 4.5 4.6 5.0 5.1 5.0 5.1 5.3 5.1 4.9
7.1 7.2 7.1 7.1 7.1 6.7 6.5 6.9 6.6 6.2 5.6 4.7 5.0 4.8 4.8 4.9 5.3 5.1 5.0 5.0 4.8 5.0
7.1 7.2 7.2 6.8 6.9 6.5 5.5 5.5 5.6 5.1 4.9 5.1 5.4 5.2 5.3 5.4 5.2 5.3 5.3 5.2 4.9 5.0
6.9 7.0 7.1 6.6 6.4 6.2 5.5 5.7 5.2 5.4 5.2 5.7 5.4 5.3 5.4 5.4 5.3 5.6 5.4 5.3 5.1 5.0
6.9 6.8 6.9 7.0 6.8 6.1 5.9 6.0 6.1 5.4 5.7 5.5 5.5 5.7 5.5 5.4 5.3 5.1 5.1 5.4 5.2 5.2
6.8 6.6 6.5 6.6 6.8 6.8 6.2 6.5 5.9 6.3 6.0 5.7 6.0 5.6 5.7 5.6 5.4 5.3 5.1 5.3 5.7 5.3
6.8 6.7 6.6 6.5 6.4 6.3 6.0 5.9 6.3 6.3 6.0 5.9 5.6 5.9 5.6 5.6 5.6 5.5 5.5 5.1 5.3 5.2
6.8 6.7 6.6 6.5 6.5 6.5 6.1 6.3 6.0 6.2 6.0 6.1 5.9 5.6 5.7 5.6 5.6 5.3 5.0 5.0 5.0 5.2
6.7 6.5 6.7 6.7 6.7 6.3 6.0 5.7 5.8 5.8 5.8 5.8 5.7 5.5 5.6 5.7 5.4 5.1 4.9 4.8 5.1 4.9
6.8 6.8 6.9 6.9 6.9 6.5 5.9 5.6 5.9 5.7 5.8 5.7 5.6 5.8 5.8 5.5 5.1 5.1 4.9 5.0 4.8 5.0
Wind_Speed
13 9 9 12 10 10 10 10 15 13 12 10 11 10 9 7 6 7 5 6 6 5
13 12 10 12 13 11 12 9 16 15 13 12 11 11 11 5 7 7 6 6 6 5
17 15 15 12 15 14 13 13 14 13 14 13 12 11 10 7 8 7 5 5 5 6
17 17 16 15 15 15 15 14 14 12 11 12 10 12 9 8 8 8 7 6 7 5
18 17 17 16 16 16 16 16 13 12 12 11 11 12 10 10 8 9 8 4 6 6
16 16 16 16 12 13 14 13 13 12 12 13 11 13 10 12 10 8 7 5 5 3
16 15 13 12 12 12 13 14 13 11 12 10 10 9 11 11 10 8 6 6 6 3
11 11 11 11 12 12 12 11 13 14 12 11 10 8 9 7 9 10 9 7 6 4
10 10 11 11 12 12 12 12 12 12 11 13 7 23 16 12 6 8 8 9 6 7
10 10 10 11 12 13 13 14 15 14 12 9 11 18 19 19 7 6 7 7 6 4
11 11 12 13 13 12 13 13 13 11 15 11 10 19 19 17 10 7 7 6 5 4
13 13 13 13 14 13 14 12 13 12 15 13 12 21 20 14 9 8 7 6 5 3
13 13 14 14 14 13 12 13 10 12 12 17 11 19 19 13 6 8 6 5 5 4
11 12 13 13 13 14 14 14 13 13 11 12 11 12 16 12 6 6 5 4 3 2
Wind_Direction
193 188 189 189 184 186 190 186 175 175 166 163 157 151 143 129 118 117 113 108 96 87
192 189 187 181 192 190 189 179 175 173 158 160 155 156 146 137 132 130 124 115 112 105
200 195 194 184 193 189 186 175 172 172 162 156 148 146 141 137 142 137 128 123 115 111
203 202 201 196 195 191 181 176 175 172 157 153 149 152 150 145 144 137 130 123 114 98
203 201 202 199 195 189 185 175 169 159 150 149 154 160 154 147 144 134 127 121 118 133
197 193 194 192 176 167 163 162 157 152 157 159 156 156 151 142 133 123 119 129 125 120
187 181 175 167 162 161 163 157 153 150 147 144 141 144 140 135 128 115 108 118 113 110
175 165 152 154 154 151 153 155 152 144 137 134 136 133 135 139 132 132 132 126 124 120
136 140 146 143 147 139 142 138 135 131 132 137 132 134 138 123 135 137 142 141 134 136
135 134 134 135 135 139 142 136 135 131 134 122 122 136 138 132 124 153 144 133 136 135
143 139 139 139 140 140 139 138 146 138 131 134 138 150 143 130 132 143 130 126 124 126
161 151 150 150 149 144 139 144 144 144 135 136 144 153 143 138 146 141 131 135 123 132
159 156 157 153 148 145 138 136 141 134 126 139 140 153 144 150 145 138 147 134 138 96
150 150 146 141 141 138 136 129 131 124 123 129 145 147 148 147 138 152 141 153 135 107